sat.trackr.live / text

‹ back to catalog

STARLINK-33882

NORAD 63788 · 2025-091P

PAYLOAD ACTIVE UNKNOWN

§ Identity

Operator
Country
US
Launch date
2025-05-02
Launch site
AFETR
Launch vehicle
Mass (kg)
RCS (m²)

Purposes: comms

External: N2YO · Heavens-Above · Gunter

§ Orbital elements

Epoch: 2026-09-20T08:28:49.288800Z

Period
94.27 min
Inclination
43.0054°
Eccentricity
0.0003174
Mean motion
15.27586967 rev/d
Perigee alt
480.9 km
Apogee alt
485.2 km
Semi-major
6,861.2 km
B*
3.8987e-4
RAAN
33.1525°
Arg perigee
279.5233°
Mean anomaly
80.5260°
Rev number
7,866

§ Raw data

STARLINK-338821 63788U 25091P   26263.35334825  .00010484  00000+0  38987-3 0  99952 63788  43.0054  33.1525 0003174 279.5233  80.5260 15.27586967 78669

JSON: /api/v1/satellites/63788 · /tle

For live sub-satellite position, see the globe view (requires WebGL).

§ Visibility from observer

Set your observer location to see the next 7 days of passes ≥ 10°. The values pass through the URL so the page stays shareable.

No JS? Fill the form by hand. The geolocation button needs JavaScript.